TimeEST,TemperatureF,Dew PointF,Humidity,Sea Level PressureIn,VisibilityMPH,Wind Direction,Wind SpeedMPH,Gust SpeedMPH,PrecipitationIn,Events,Conditions,WindDirDegrees,DateUTC
12:55 AM,46.9,41.0,80,29.83,5.0,SW,20.7,26.5,N/A,,Haze,230,2011-11-25 05:55:00
1:55 AM,46.9,41.0,80,29.82,5.0,WSW,17.3,24.2,N/A,,Haze,250,2011-11-25 06:55:00
2:55 AM,46.9,42.1,83,-9999,5.0,SW,12.7,23.0,N/A,,Haze,230,2011-11-25 07:55:00
3:55 AM,46.9,42.1,83,-9999,6.0,WSW,17.3,26.5,N/A,,Haze,240,2011-11-25 08:55:00
4:55 AM,46.9,42.1,83,-9999,6.0,SW,12.7,-,N/A,,Haze,230,2011-11-25 09:55:00
5:55 AM,46.9,41.0,80,-9999,7.0,WSW,11.5,-,N/A,,Overcast,240,2011-11-25 10:55:00
6:55 AM,46.9,41.0,80,-9999,8.0,WSW,9.2,-,N/A,,Overcast,250,2011-11-25 11:55:00
7:55 AM,46.9,41.0,80,29.78,8.0,WSW,12.7,-,N/A,,Overcast,250,2011-11-25 12:55:00
8:55 AM,46.9,41.0,80,29.79,7.0,WSW,12.7,18.4,N/A,,Overcast,240,2011-11-25 13:55:00
9:55 AM,48.9,41.0,74,29.78,9.0,SW,9.2,-,N/A,,Overcast,230,2011-11-25 14:55:00
10:08 AM,48.2,41.0,76,29.77,9.0,WSW,11.5,-,N/A,,Overcast,240,2011-11-25 15:08:00
10:55 AM,50.0,41.0,71,29.78,10.0,WSW,15.0,20.7,N/A,,Overcast,240,2011-11-25 15:55:00
11:55 AM,50.0,41.0,71,29.76,10.0,SW,13.8,18.4,N/A,,Overcast,230,2011-11-25 16:55:00
12:55 PM,50.0,41.0,71,29.77,10.0,WSW,9.2,-,N/A,,Overcast,250,2011-11-25 17:55:00
1:55 PM,50.0,41.0,71,29.77,10.0,SW,8.1,-,N/A,,Overcast,220,2011-11-25 18:55:00
2:55 PM,50.0,41.0,71,29.76,10.0,SSW,10.4,-,N/A,,Overcast,210,2011-11-25 19:55:00
3:55 PM,48.9,41.0,74,29.78,10.0,SSW,9.2,-,N/A,,Overcast,200,2011-11-25 20:55:00
4:55 PM,48.0,39.9,74,29.81,10.0,WSW,8.1,-,N/A,,Overcast,240,2011-11-25 21:55:00
5:55 PM,48.0,39.9,74,29.83,10.0,SW,9.2,-,N/A,,Overcast,220,2011-11-25 22:55:00
6:55 PM,46.9,39.9,77,29.86,10.0,Variable,3.5,-,N/A,,Overcast,0,2011-11-25 23:55:00
7:55 PM,46.9,41.0,80,29.87,9.0,Calm,Calm,-,N/A,,Overcast,0,2011-11-26 00:55:00
8:55 PM,46.0,41.0,83,29.88,8.0,Calm,Calm,-,N/A,,Overcast,0,2011-11-26 01:55:00
9:55 PM,46.0,41.0,83,29.91,7.0,Calm,Calm,-,N/A,,Overcast,0,2011-11-26 02:55:00
10:55 PM,46.0,41.0,83,29.90,8.0,ESE,3.5,-,N/A,,Overcast,110,2011-11-26 03:55:00
11:14 PM,46.4,41.0,81,29.89,7.0,Calm,Calm,-,N/A,,Overcast,0,2011-11-26 04:14:00
11:55 PM,46.0,41.0,83,29.91,7.0,Calm,Calm,-,N/A,,Overcast,0,2011-11-26 04:55:00